Location: Roanoke
(37.2710°N, 79.9420°W)
Time: 09:09:45
(UTC-05:00)

Transit 2A - Pass Details

Date: 23 November 2019
Orbit: 602 x 957 km, 66.7° (Epoch: 10 December)

Event Time Altitude Azimuth Distance (km) Brightness Sun altitude
Rises 09:35:10 0° 158° (SSE) 3,260 10.6 22.3°
Reaches altitude 10° 09:39:07 10° 130° (SE) 2,246 10.2 22.8°
Maximum altitude 09:41:09 12° 106° (ESE) 2,044 9.2 23.0°
Drops below altitude 10° 09:43:07 10° 82° (E) 2,162 8.8 23.2°
Sets 09:46:44 0° 53° (NE) 3,007 9.1 23.7°
